When you browse on this site, cookies collect data to enhance your experience and personalize the content and advertising you see.
Visit our Privacy Policy to learn more. By continuing to use the site, you agree to this use of cookies and data.
  • En España
  • Lista de países
  • Para 7 días
  • Temperatura del agua
  • Mapa Satelital
  • El tiempo en el mapa
  • Informadores
  • user-avatar
    Iniciar sesión

    Tiempo cada hora Bijeljina

    Hoy, 20 Enero, Domingo

    Tiempo Temperatura Precipitaciones Viento Presión Humedad
    00:00 -1°C° 0 mm 0 mps 753 mmHg 93%
    01:00 -1°C° 0 mm 0 mps 753 mmHg 93%
    02:00 -1°C° 0 mm 0 mps 753 mmHg 92%
    03:00 -1°C° 0 mm 0 mps 753 mmHg 92%
    04:00 0°C° 0 mm 1 mps 752 mmHg 92%
    05:00 0°C° 0 mm 1 mps 752 mmHg 92%
    06:00 0°C° 0 mm 1 mps 752 mmHg 93%
    07:00 0°C° 0 mm 1 mps 752 mmHg 93%
    08:00 +1°C° 0 mm 1 mps 752 mmHg 90%
    09:00 +1°C° 0 mm 2 mps 752 mmHg 86%
    10:00 +2°C° 0 mm 2 mps 752 mmHg 83%
    11:00 +2°C° 0 mm 2 mps 752 mmHg 82%
    12:00 +3°C° 0 mm 2 mps 752 mmHg 80%
    13:00 +4°C° 0 mm 2 mps 752 mmHg 79%
    14:00 +3°C° 0 mm 2 mps 752 mmHg 81%
    15:00 +3°C° 0 mm 2 mps 753 mmHg 83%
    16:00 +4°C° 0 mm 1 mps 753 mmHg 84%
    17:00 +3°C° 0 mm 1 mps 753 mmHg 86%
    18:00 +3°C° 0 mm 1 mps 753 mmHg 87%
    19:00 +2°C° 0 mm 0 mps 754 mmHg 88%
    20:00 +2°C° 0 mm 0 mps 754 mmHg 88%
    21:00 +2°C° 0 mm 0 mps 754 mmHg 88%
    22:00 +2°C° 0 mm 0 mps 755 mmHg 88%
    23:00 +2°C° 0 mm 0 mps 755 mmHg 88%

    Mañana, 21 Enero, Lunes

    Tiempo Temperatura Precipitaciones Viento Presión Humedad
    00:00 +2°C° 0 mm 0 mps 755 mmHg 87%
    01:00 +3°C° 0 mm 1 mps 756 mmHg 87%
    02:00 +2°C° 0 mm 1 mps 756 mmHg 87%
    03:00 +2°C° 0 mm 1 mps 756 mmHg 87%
    04:00 +2°C° 0 mm 1 mps 756 mmHg 88%
    05:00 +2°C° 0 mm 1 mps 756 mmHg 88%
    06:00 +2°C° 0 mm 1 mps 756 mmHg 88%
    07:00 +2°C° 0 mm 1 mps 756 mmHg 89%
    08:00 +2°C° 0.1 mm 1 mps 757 mmHg 86%
    09:00 +1°C° 0.1 mm 0 mps 757 mmHg 83%
    10:00 +2°C° 0.1 mm 0 mps 757 mmHg 80%
    11:00 +2°C° 0.1 mm 0 mps 757 mmHg 78%
    12:00 +2°C° 0.1 mm 0 mps 757 mmHg 76%
    13:00 +4°C° 0.1 mm 1 mps 757 mmHg 74%
    14:00 +4°C° 0 mm 1 mps 757 mmHg 75%
    15:00 +4°C° 0 mm 1 mps 757 mmHg 76%
    16:00 +4°C° 0 mm 1 mps 757 mmHg 77%
    17:00 +3°C° 0 mm 1 mps 757 mmHg 80%
    18:00 +3°C° 0 mm 1 mps 757 mmHg 83%
    19:00 +3°C° 0 mm 1 mps 757 mmHg 86%
    20:00 +2°C° 0.1 mm 1 mps 757 mmHg 88%
    21:00 +2°C° 0.1 mm 1 mps 757 mmHg 89%
    22:00 +1°C° 0.1 mm 2 mps 757 mmHg 91%
    23:00 +1°C° 0.2 mm 2 mps 756 mmHg 92%

    Pasado mañana, 22 Enero, Martes

    Tiempo Temperatura Precipitaciones Viento Presión Humedad
    00:00 +1°C° 0.2 mm 2 mps 756 mmHg 93%
    01:00 +1°C° 0.2 mm 2 mps 756 mmHg 94%
    02:00 -1°C° 0.1 mm 2 mps 755 mmHg 94%
    03:00 -1°C° 0.1 mm 2 mps 755 mmHg 94%
    04:00 -1°C° 0.1 mm 2 mps 754 mmHg 95%
    05:00 -1°C° 0.1 mm 2 mps 754 mmHg 95%
    06:00 -1°C° 0.1 mm 2 mps 754 mmHg 95%
    07:00 -1°C° 0.1 mm 2 mps 753 mmHg 95%
    08:00 -1°C° 0.2 mm 2 mps 753 mmHg 94%
    09:00 -1°C° 0.2 mm 2 mps 752 mmHg 93%
    10:00 +1°C° 0.2 mm 2 mps 752 mmHg 92%
    11:00 +1°C° 0.6 mm 2 mps 751 mmHg 92%
    12:00 +1°C° 0.6 mm 2 mps 750 mmHg 92%
    13:00 +2°C° 0.6 mm 2 mps 750 mmHg 92%
    14:00 +2°C° 0.6 mm 1 mps 749 mmHg 94%
    15:00 +2°C° 0.6 mm 1 mps 748 mmHg 95%
    16:00 +2°C° 0.6 mm 1 mps 748 mmHg 97%
    17:00 +2°C° 0 mm 1 mps 747 mmHg 97%
    18:00 +2°C° 0 mm 1 mps 747 mmHg 97%
    19:00 +2°C° 0 mm 1 mps 746 mmHg 97%
    20:00 +2°C° 0 mm 1 mps 746 mmHg 97%
    21:00 +2°C° 0 mm 1 mps 745 mmHg 97%
    22:00 0°C° 0 mm 0 mps 745 mmHg 97%
    23:00 0°C° 0.1 mm 0 mps 744 mmHg 97%

    23 Enero, Miércoles

    Tiempo Temperatura Precipitaciones Viento Presión Humedad
    00:00 0°C° 0.1 mm 0 mps 743 mmHg 97%
    01:00 0°C° 0.1 mm 0 mps 743 mmHg 97%
    02:00 0°C° 1 mm 0 mps 742 mmHg 97%
    03:00 0°C° 1 mm 0 mps 742 mmHg 97%
    04:00 0°C° 1 mm 0 mps 741 mmHg 98%
    05:00 0°C° 0.3 mm 0 mps 741 mmHg 98%
    06:00 0°C° 0.3 mm 0 mps 741 mmHg 98%
    07:00 0°C° 0.3 mm 0 mps 741 mmHg 98%
    08:00 +1°C° 0.2 mm 0 mps 741 mmHg 98%
    09:00 +1°C° 0.2 mm 0 mps 741 mmHg 98%
    10:00 +1°C° 0.2 mm 0 mps 741 mmHg 99%
    11:00 +1°C° 0.8 mm 0 mps 741 mmHg 99%
    12:00 +1°C° 0.8 mm 0 mps 741 mmHg 99%
    13:00 +2°C° 0.8 mm 1 mps 740 mmHg 99%
    14:00 +2°C° 0.5 mm 1 mps 740 mmHg 99%
    15:00 +2°C° 0.5 mm 1 mps 741 mmHg 99%
    16:00 +2°C° 0.5 mm 1 mps 741 mmHg 99%
    17:00 +2°C° 0.2 mm 1 mps 741 mmHg 99%
    18:00 +2°C° 0.2 mm 1 mps 741 mmHg 98%
    19:00 +2°C° 0.2 mm 1 mps 742 mmHg 97%
    20:00 +2°C° 0.1 mm 1 mps 742 mmHg 97%
    21:00 +2°C° 0.1 mm 1 mps 743 mmHg 97%
    22:00 +2°C° 0.1 mm 1 mps 743 mmHg 96%
    23:00 +2°C° 0.1 mm 1 mps 743 mmHg 96%

    24 Enero, Jueves

    Tiempo Temperatura Precipitaciones Viento Presión Humedad
    00:00 +2°C° 0.1 mm 1 mps 743 mmHg 96%
    01:00 +2°C° 0.1 mm 1 mps 744 mmHg 97%
    02:00 +2°C° 0 mm 1 mps 744 mmHg 97%
    03:00 +2°C° 0 mm 1 mps 744 mmHg 97%
    04:00 +2°C° 0 mm 1 mps 744 mmHg 97%
    05:00 +2°C° 0 mm 1 mps 744 mmHg 97%
    06:00 +1°C° 0 mm 1 mps 744 mmHg 97%
    07:00 0°C° 0 mm 0 mps 744 mmHg 97%
    08:00 +1°C° 0 mm 1 mps 744 mmHg 97%
    09:00 +2°C° 0 mm 1 mps 744 mmHg 98%
    10:00 +2°C° 0 mm 1 mps 744 mmHg 99%
    11:00 +2°C° 0 mm 1 mps 743 mmHg 98%
    12:00 +2°C° 0 mm 2 mps 743 mmHg 98%
    13:00 +2°C° 0 mm 2 mps 742 mmHg 98%
    14:00 +2°C° 0.3 mm 2 mps 742 mmHg 98%
    15:00 +2°C° 0.3 mm 2 mps 742 mmHg 98%
    16:00 +2°C° 0.3 mm 2 mps 742 mmHg 99%
    17:00 +2°C° 0.5 mm 2 mps 742 mmHg 99%
    18:00 +1°C° 0.5 mm 3 mps 742 mmHg 99%
    19:00 +1°C° 0.5 mm 3 mps 742 mmHg 99%
    20:00 +1°C° 1.4 mm 3 mps 742 mmHg 98%
    21:00 0°C° 1.4 mm 4 mps 742 mmHg 98%
    22:00 0°C° 1.4 mm 4 mps 742 mmHg 98%
    23:00 0°C° 1.8 mm 4 mps 742 mmHg 98%

    25 Enero, Viernes

    Tiempo Temperatura Precipitaciones Viento Presión Humedad
    00:00 0°C° 1.8 mm 4 mps 742 mmHg 97%
    01:00 +1°C° 1.8 mm 3 mps 742 mmHg 97%
    02:00 0°C° 1.2 mm 4 mps 742 mmHg 97%
    03:00 -1°C° 1.2 mm 4 mps 742 mmHg 97%
    04:00 -1°C° 1.2 mm 4 mps 742 mmHg 97%
    05:00 -1°C° 0.7 mm 4 mps 742 mmHg 97%
    06:00 -1°C° 0.7 mm 4 mps 743 mmHg 97%
    07:00 -1°C° 0.7 mm 4 mps 743 mmHg 96%
    08:00 -1°C° 0.7 mm 4 mps 744 mmHg 97%
    09:00 -1°C° 0.7 mm 5 mps 744 mmHg 97%
    10:00 -1°C° 0.7 mm 5 mps 745 mmHg 97%
    11:00 -1°C° 0.4 mm 5 mps 745 mmHg 97%
    12:00 -1°C° 0.4 mm 5 mps 745 mmHg 96%
    13:00 -1°C° 0.4 mm 5 mps 746 mmHg 96%
    14:00 -1°C° 0.3 mm 5 mps 746 mmHg 96%
    15:00 -1°C° 0.3 mm 5 mps 747 mmHg 95%
    16:00 -1°C° 0.3 mm 5 mps 747 mmHg 95%
    17:00 -1°C° 0.4 mm 5 mps 748 mmHg 95%
    18:00 -1°C° 0.4 mm 5 mps 748 mmHg 94%
    19:00 -1°C° 0.4 mm 5 mps 749 mmHg 94%
    20:00 -1°C° 0.5 mm 5 mps 750 mmHg 94%
    21:00 -1°C° 0.5 mm 5 mps 750 mmHg 94%
    22:00 -1°C° 0.5 mm 5 mps 751 mmHg 94%
    23:00 -2°C° 0.7 mm 5 mps 751 mmHg 94%
    Mostrar más